Showing default

YUNHAI 2-1B, 43910

Orbit data source: Space-Track

YUNHAI 2-1B, 43910 is a payload satellite owned by CASC (CN) in LEO that was launched on Sat, 29 Dec 2018 UTC via a CHANG ZHENG 2D/YZ-3 launch vehicle from the Jiuquan Satellite Launch Center, China (JSC). Payload-class satellites include a variety of spacecraft equipped with specific instruments for various scientific and technological missions. These include communications satellites like Starlink; space stations such as the ISS; scientific satellites like the Hubble; Earth observation satellites from companies like Planet Labs, Umbra, and HawkEye 360; GPS; miniature CubeSats for education and research; and military/defense satellites.

Loading next visibility...
Identifier
43910, 2018-112B
Orbit
LEO
Country
Flag of CNCN / PRC
Related business
Manufacturer
DFH Shenzhen
Mission
Operational Defense Meteo Radio Occ.
Bus & Motor
YH-2, Unknown motor
Mass
~100 kg wet, ~100 kg dry
Launch date (UTC)
2018-12-29 (7 years ago)
Launch vehicle
CHANG ZHENG 2D/YZ-3
Launch site
Jiuquan Satellite Launch Center, China (JSC)
Object type
Payload
Rocket body
Debris
Shape & HBR
Box + 2 Pan, 0.5 m
Radar Cross Section
0.166 m², Large (>1 m²)

Expand to show TLE details & history
Last TLE update: 4 hours ago

TLE from 4 hours ago
0 YUNHAI 2-1B
1 43910U 18112B   25310.31581935  .00000571  00000-0  28835-3 0  9998
2 43910  50.0132 333.8035 0004753 164.0721 196.0345 14.28880602358378
Epoch: 2025-11-06T07:34Z
TLE epoch observation values (Epoch: 2025-11-06T07:34:46.791Z)
Latitude
Longitude
174.33265°
Altitude
799.284 km
Speed
7.453 km/s
True Right ascension
22h 15m 12s
True Declination
0° 00' 00"
Sunlit
Object was in daylight at epoch
Visualization orbit readout
Latitude
Unknown
Longitude
Unknown
Altitude
Unknown
Speed
Unknown
Apparent Right ascension
Unknown
Apparent Declination
Unknown
Sunlit
N/A
Visualization observer readout
Local Sidereal Time
07:39:22
Azimuth
Unknown
Elevation
Unknown
Doppler factor
Unknown
Orbital elements
Apogee altitude
799.623 km
Perigee altitude
792.803 km
Semi-major axis
7,174.35 km
Eccentricity
0.00048
Inclination
50.0132°
RAAN
333.8035°
Arg. of periapsis
164.0721°
True anomaly
196.01946°
Mean anomaly
196.0345°
Eccentric anomaly
196.02698°
Mean motion
3.57165 °/min
Orbital period
100.79 mins
BSTAR
0.00028835
Loading maneuver chart data...
Computing Atmospheric mass density...
Loading historical data...
Loading historical data...
Loading historical data...
Loading historical data...
Loading historical data...
Loading historical data...
Loading historical data...

Documentation

Showing up to 5 results
|